Weather History for Deming, NM

Change the Weather History Date:

Sunday, June 30, 2013

  Actual Average Record
Temperature  
Mean Temperature 87 °F 80 °F  
Max Temperature 100 °F 97 °F 107 °F (1998)
Min Temperature 73 °F 64 °F 51 °F (1955)
Cooling Degree Days 24    
Growing Degree Days 40 (Base 50)    
Moisture  
Dew Point 45 °F    
Average Humidity 27    
Maximum Humidity 39    
Minimum Humidity 15    
Precipitation  
Precipitation T in 0.06 in 0.27 in (1993)
Month to date precipitation T 0.70  
Year to date precipitation 0.51 3.11  
Sea Level Pressure  
Sea Level Pressure 29.78 in    
Wind  
Wind Speed 9 mph (ENE)    
Max Wind Speed 31 mph    
Max Gust Speed 38 mph    
Visibility 9 miles    
Events Rain , Thunderstorm    
T = Trace of Precipitation, MM = Missing Value Source: NWS Daily Summary

Daily Weather History Graph

Daily Weather History Graph

Search for Another Location

Airport:

Trip Planner

Search our weather history database for the weather conditions in past years. The results will help you decide how hot, cold, wet, or windy it might be!

Date:

Astronomy

Jun. 30, 2013 Rise Set
Actual Time 6:07 AM MDT 8:21 PM MDT
Civil Twilight 5:39 AM MDT 8:49 PM MDT
Nautical Twilight 5:04 AM MDT 9:24 PM MDT
Astronomical Twilight 4:27 AM MDT 10:01 PM MDT
Moon 12:51 AM MDT (6/30) 1:53 PM MDT (6/30)
Length of Visible Light 15h 10m
Length of Day
14h 14m
Last Quarter, 45% of the Moon is Illuminated
Jun 30
Last Quarter
Jul 8
New
Jul 15
First Quarter
Jul 22
Full
Jul 29
Last Quarter

Hourly Weather History & Observations

Time (MDT) Temp. Heat Index Dew Point Humidity Pressure Visibility Wind Dir Wind Speed Gust Speed Precip Events Conditions
12:06 AM 87.8 °F - 44.6 °F 22% 30.09 in 6.0 mi NE 15.0 mph 25.3 mph N/A   Haze
12:53 AM 84.0 °F - 45.0 °F 25% 29.81 in 8.0 mi NE 13.8 mph - N/A   Mostly Cloudy
1:53 AM 82.9 °F - 45.0 °F 26% 29.79 in 10.0 mi NE 11.5 mph - N/A   Clear
2:53 AM 81.0 °F - 45.0 °F 28% 29.78 in 10.0 mi ENE 4.6 mph - N/A   Clear
3:53 AM 80.1 °F - 45.0 °F 29% 29.77 in 10.0 mi East 6.9 mph - N/A   Clear
4:53 AM 80.1 °F - 45.0 °F 29% 29.78 in 10.0 mi Calm Calm - N/A   Clear
5:53 AM 81.0 °F - 46.0 °F 29% 29.79 in 10.0 mi East 5.8 mph - 0.00 in   Scattered Clouds
6:53 AM 82.0 °F - 44.1 °F 26% 29.78 in 10.0 mi East 10.4 mph - N/A   Clear
7:53 AM 82.0 °F - 45.0 °F 27% 29.81 in 10.0 mi ENE 10.4 mph - N/A   Clear
8:53 AM 84.0 °F - 46.0 °F 26% 29.83 in 10.0 mi ENE 10.4 mph - N/A   Clear
9:53 AM 87.1 °F - 45.0 °F 23% 29.83 in 10.0 mi East 12.7 mph - N/A   Clear
10:53 AM 90.0 °F - 46.0 °F 22% 29.82 in 10.0 mi East 9.2 mph - N/A   Clear
11:53 AM 93.0 °F - 46.0 °F 20% 29.79 in 10.0 mi Variable 6.9 mph - N/A   Clear
12:53 PM 93.9 °F - 44.1 °F 18% 29.78 in 10.0 mi Calm Calm - N/A   Clear
1:53 PM 96.1 °F - 43.0 °F 16% 29.75 in 10.0 mi Variable 5.8 mph 17.3 mph N/A   Clear
2:53 PM 99.0 °F - 42.1 °F 14% 29.72 in 10.0 mi NNE 8.1 mph - N/A   Clear
3:53 PM 98.1 °F - 42.1 °F 15% 29.70 in 9.0 mi WNW 6.9 mph - N/A   Clear
4:53 PM 97.0 °F - 41.0 °F 14% 29.68 in 9.0 mi ENE 4.6 mph - N/A   Clear
5:53 PM 97.0 °F - 41.0 °F 14% 29.65 in 9.0 mi Calm Calm - N/A   Clear
6:53 PM 97.0 °F - 42.1 °F 15% 29.64 in 9.0 mi SW 4.6 mph - N/A   Clear
7:53 PM 95.0 °F - 41.0 °F 15% 29.66 in 10.0 mi NW 10.4 mph - N/A   Scattered Clouds
8:53 PM 91.0 °F - 43.0 °F 19% 29.69 in 9.0 mi North 4.6 mph - N/A   Partly Cloudy
9:53 PM 91.0 °F - 42.1 °F 18% 29.71 in 10.0 mi SE 10.4 mph - N/A   Mostly Cloudy
10:39 PM 80.6 °F 80.3 °F 53.6 °F 39% 30.04 in 5.0 mi East 18.4 mph 26.5 mph 0.00 in Rain , Thunderstorm Light Rain
10:53 PM 80.1 °F 79.9 °F 53.1 °F 39% 29.78 in 6.0 mi East 13.8 mph 20.7 mph 0.00 in   Haze
11:53 PM 81.0 °F - 52.0 °F 36% 29.86 in 8.0 mi NE 25.3 mph 34.5 mph N/A   Mostly Cloudy